Location: Beuvrequen
(50.8014°N, 1.6652°E)
Time: 22:11:13
(UTC+00:00)

USA 215 - Pass Details

Date: 16 October 2021
Orbit: 1099 x 1109 km, 123.0° (Epoch: 20 November)

Event Time Altitude Azimuth Distance (km) Brightness Sun altitude
Exits shadow 19:42:15 40° 53° (NE) 1,574 3.8 -26.3°
Maximum altitude 19:44:14 53° 5° (N) 1,334 3.7 -26.6°
Drops below altitude 10° 19:50:33 10° 291° (WNW) 2,967 6.5 -27.6°
Sets 19:53:05 0° 287° (WNW) 3,927 7.4 -28.0°
